GEFSSE_500_meanwind_270.txt.gz
Wind_Speed
12 11 10 9 9 8 8 7 7 6 6 5 4 4 4 4 3 3 2 1 1 1 1 2 3 4 4 4 5 6 6 7 7 8 9 9 9 10 10 11 12 12 12
13 13 12 11 10 10 9 8 8 7 7 6 5 5 4 5 4 3 3 2 2 2 2 3 4 4 5 5 6 6 7 8 8 8 9 9 10 10 11 11 12 12 12
14 14 13 12 11 10 10 9 9 8 8 7 7 6 6 5 5 4 4 4 4 4 4 4 5 5 6 6 7 7 8 8 9 9 10 10 11 11 11 11 12 12 13
16 15 15 14 13 12 11 10 10 10 9 9 8 7 7 7 6 5 5 5 5 5 5 6 6 7 7 7 7 8 9 9 10 10 11 11 11 12 12 12 13 14 14
18 17 16 15 14 13 12 11 11 11 11 10 9 9 8 8 7 7 6 7 7 7 7 7 8 8 8 8 9 9 10 11 11 11 12 12 13 13 13 13 14 15 16
19 18 18 17 16 15 14 13 12 12 12 11 11 10 10 9 8 8 8 8 8 8 8 9 10 9 9 9 10 11 11 11 12 12 13 14 14 14 14 15 15 16 17
21 20 19 18 17 16 15 14 13 13 13 13 12 12 11 11 10 10 10 9 9 9 10 10 11 10 11 11 11 12 12 13 13 14 14 15 15 15 16 16 17 17 18
23 22 21 20 19 18 17 16 15 15 14 14 14 14 13 13 12 12 12 11 11 11 11 11 12 12 13 13 13 13 14 14 15 15 16 16 17 17 17 18 19 19 19
25 24 23 22 20 20 19 18 17 17 16 16 16 16 16 15 15 14 14 14 13 13 13 13 13 14 14 15 15 16 16 16 16 17 17 17 18 18 19 19 20 20 21
27 26 25 24 22 22 21 20 19 19 18 18 17 17 17 16 16 16 16 16 16 16 16 15 15 16 16 17 17 17 18 18 19 19 19 19 19 20 21 21 21 22 22
29 28 27 26 25 24 23 22 21 21 20 20 19 18 18 18 18 18 18 18 18 18 17 17 17 18 18 19 19 20 20 20 20 21 21 21 21 22 22 23 23 24 24
32 31 29 28 27 26 24 24 23 23 22 22 21 20 20 20 20 20 20 20 20 20 19 19 20 20 20 21 21 21 22 22 22 23 23 24 24 24 24 25 25 25 25
34 33 31 30 29 28 26 26 25 25 24 23 23 22 22 22 22 22 22 22 22 21 21 21 22 22 22 23 23 23 24 24 24 25 25 26 26 26 26 26 26 26 26
35 34 33 32 31 29 28 27 27 26 26 25 25 24 24 23 23 23 24 24 24 24 24 24 24 24 24 25 25 25 26 26 26 27 27 27 27 28 28 28 27 28 28
36 35 34 33 32 31 30 29 29 28 28 27 27 27 26 26 25 25 26 26 26 26 26 26 27 27 27 27 27 27 27 28 28 28 29 29 29 29 29 29 29 29 29
38 37 35 34 33 33 32 31 31 30 30 29 29 28 28 28 28 28 28 28 28 28 28 28 28 28 28 29 29 29 30 30 30 30 30 30 30 30 30 30 30 30 31
39 39 37 35 35 34 34 33 32 32 31 31 31 31 30 30 30 30 30 30 30 30 30 30 30 30 30 30 30 31 31 31 31 31 31 31 31 31 30 31 31 32 32
40 39 38 36 35 35 35 34 34 33 33 32 32 32 32 32 31 31 31 32 32 32 32 32 31 31 32 32 32 32 32 32 32 32 32 32 32 32 32 33 33 33 34
41 40 39 38 37 36 36 35 35 35 35 35 34 34 34 33 33 33 34 34 34 35 34 34 34 34 34 34 34 34 34 33 33 33 33 33 33 34 34 35 35 35 35
43 42 41 40 39 38 37 36 36 37 36 36 37 36 36 36 36 36 36 37 36 37 37 36 36 36 36 35 35 35 35 35 34 34 35 35 35 36 36 37 36 37 37
44 44 43 41 41 40 39 39 39 38 38 38 39 38 39 39 39 39 38 38 38 38 38 38 38 37 37 37 36 36 36 36 37 37 37 37 37 37 37 38 38 38 38
45 44 44 43 42 42 41 40 40 39 39 39 40 41 41 41 41 40 41 41 41 40 40 39 39 39 38 38 38 38 38 37 38 38 38 39 39 38 38 38 39 39 39
46 45 44 44 43 43 42 42 42 42 41 41 41 41 41 42 42 42 41 42 42 42 41 41 41 40 40 40 39 39 40 39 38 39 39 40 40 40 39 39 40 41 41
46 46 45 45 45 44 44 44 44 43 42 42 42 42 42 42 42 42 42 43 43 42 42 42 42 41 40 40 40 41 41 41 40 39 40 41 42 41 41 41 42 42 43
46 47 46 46 46 46 46 46 45 44 44 43 42 41 41 41 42 42 42 43 43 42 42 41 42 41 41 41 41 41 42 42 42 42 41 41 42 42 43 43 43 44 45
47 47 47 46 46 47 47 47 46 46 46 45 43 43 42 42 42 41 41 41 42 42 42 42 42 42 42 41 42 42 43 43 43 44 43 42 42 42 43 44 44 45 46

GEFSSE_500_meanwind_276.txt.gz
Wind_Speed
11 10 10 9 8 8 7 6 6 5 5 4 4 4 4 4 4 3 3 3 3 3 3 3 4 4 4 5 5 6 6 6 7 7 8 9 9 9 10 10 10 10 11
13 13 12 11 10 9 9 8 7 7 6 6 6 5 5 5 5 5 4 4 4 4 4 4 4 5 5 6 6 7 7 7 8 8 9 9 10 10 10 11 11 11 12
14 14 13 12 12 11 10 10 9 9 8 8 7 7 6 6 6 6 6 5 5 5 5 5 5 6 6 7 7 7 8 8 9 10 10 10 10 11 11 11 12 12 13
15 15 14 13 13 12 12 11 11 10 10 9 9 8 8 7 7 7 7 6 6 6 6 6 6 7 7 8 8 8 9 9 9 10 11 11 12 12 12 13 13 13 14
17 17 16 15 14 13 13 12 12 12 11 11 10 9 9 8 8 8 8 8 7 7 7 7 8 8 8 9 9 9 10 10 11 11 12 12 13 14 14 14 14 15 15
19 18 18 17 16 15 14 14 14 13 13 12 12 11 10 10 9 9 9 9 9 9 9 9 9 9 10 10 11 11 11 12 12 12 13 13 14 15 15 15 15 16 17
21 20 20 19 18 17 16 15 15 15 14 14 13 13 12 12 11 11 10 10 10 11 11 11 11 11 12 12 13 13 13 13 13 14 14 14 15 16 16 16 16 17 18
23 22 22 21 20 19 18 17 16 16 15 15 14 14 13 13 13 13 12 12 12 12 12 13 13 14 14 14 14 14 15 15 15 15 15 16 16 17 17 18 18 19 19
26 24 24 23 22 21 20 19 18 17 16 16 15 15 15 15 15 15 14 14 14 14 14 15 15 15 15 15 16 16 16 17 17 17 18 18 18 18 19 19 20 20 20
28 26 26 25 24 23 22 21 19 18 18 17 17 17 16 16 16 16 16 16 16 16 16 16 17 17 17 17 18 18 19 19 19 19 20 20 20 20 21 21 21 21 22
30 28 28 27 26 25 23 22 21 20 19 19 18 18 18 18 18 18 17 17 17 17 17 18 18 18 18 19 19 20 21 21 21 22 22 22 22 22 23 23 23 23 24
32 30 29 29 28 27 26 24 23 22 21 20 20 19 19 19 19 19 18 18 18 18 19 19 19 19 20 21 21 22 22 23 23 24 24 24 24 24 24 25 25 25 25
34 32 32 30 29 29 28 27 25 24 24 23 22 22 21 21 21 21 20 20 20 20 20 21 21 21 22 23 23 24 24 24 25 25 25 25 25 25 25 26 26 27 27
35 34 34 33 31 30 30 29 27 26 26 25 24 24 23 23 23 22 23 23 22 22 23 23 23 24 24 25 25 26 26 27 27 26 26 26 26 26 26 27 27 28 28
38 36 35 35 33 32 31 31 30 28 27 27 26 26 25 25 25 25 25 25 25 25 25 25 26 26 27 27 27 28 28 29 29 29 28 28 28 28 28 28 28 29 29
39 38 37 36 36 34 33 32 32 31 29 28 29 28 28 28 28 27 27 27 27 27 27 28 28 28 29 29 30 30 30 30 30 30 30 30 30 30 30 30 30 30 31
39 39 39 38 38 37 36 35 34 33 32 31 30 30 30 30 30 30 30 30 30 30 30 30 31 31 32 32 32 33 33 32 32 32 32 31 31 32 31 31 31 32 33
41 41 41 41 40 39 38 38 37 36 35 34 33 32 32 32 32 32 32 32 32 32 33 33 33 34 34 34 34 35 35 35 34 34 34 34 33 33 33 33 33 34 35
42 42 42 42 42 42 41 39 39 38 37 36 35 34 34 34 34 35 35 35 34 35 36 36 36 36 36 37 37 37 36 36 35 35 35 35 35 35 35 35 35 35 36
43 43 43 43 43 44 43 42 40 39 38 38 38 37 36 36 37 37 37 37 38 38 38 38 38 38 39 39 38 37 36 36 36 36 36 36 37 37 37 36 36 36 37
42 43 43 44 44 44 44 43 42 40 40 39 39 39 38 38 38 38 39 39 40 40 40 39 40 40 39 38 38 37 37 37 36 37 36 37 37 38 38 38 38 38 39
43 43 43 44 44 44 44 44 43 42 41 41 40 40 40 40 39 40 42 42 41 42 42 41 41 40 39 39 39 38 38 38 38 38 38 38 38 38 39 39 39 40 40
45 44 43 44 45 45 45 44 44 43 43 42 41 41 42 41 41 41 43 43 43 43 42 41 41 40 40 40 39 39 39 39 40 39 38 38 38 39 40 41 41 41 42
46 45 45 45 46 46 46 45 44 43 43 43 43 43 43 43 44 44 43 43 44 44 43 42 42 42 41 41 40 41 41 41 41 40 40 40 40 41 41 41 42 43 43
46 46 46 45 45 46 46 46 45 45 44 44 45 44 44 44 44 43 42 43 43 43 44 43 43 43 43 42 41 41 41 42 42 42 41 41 41 41 42 42 43 43 43
47 47 46 45 45 45 45 46 46 46 46 46 46 44 43 43 42 41 41 41 42 41 42 42 42 42 42 42 42 42 43 43 42 42 42 42 42 42 42 43 43 43 44

GEFSSE_500_meanwind_282.txt.gz
Wind_Speed
11 11 10 9 8 8 7 6 6 5 4 4 3 3 3 2 2 2 2 2 3 3 4 4 4 5 6 6 7 8 8 8 9 9 9 10 10 10 10 11 11 11 11
13 12 11 11 10 9 8 8 7 7 6 6 5 4 4 3 3 3 3 3 4 4 4 4 5 6 6 7 7 8 9 9 9 9 10 10 10 11 11 11 12 12 12
15 15 13 12 12 11 10 9 9 8 7 7 6 5 5 5 5 5 5 5 5 5 5 5 6 7 7 7 8 9 9 10 10 10 11 11 11 12 12 12 12 12 13
17 17 16 15 14 13 12 11 10 10 9 8 8 7 7 6 6 6 6 6 6 6 6 6 7 8 8 8 9 10 10 11 11 11 11 12 12 13 13 13 13 13 14
19 19 18 17 16 15 14 12 12 11 11 11 10 9 8 7 7 7 7 7 7 7 7 7 8 9 9 10 10 11 11 12 12 12 12 13 13 14 14 14 15 15 15
20 20 19 19 18 17 16 14 13 13 12 12 11 11 10 9 8 8 8 8 8 8 8 9 9 10 10 11 12 12 13 13 13 13 14 14 15 15 16 16 16 16 17
23 21 20 20 20 19 18 16 15 14 14 13 13 13 12 10 10 9 9 9 9 10 10 10 11 11 11 12 13 13 14 14 14 15 16 16 16 17 17 18 18 18 18
25 24 22 22 21 21 20 18 17 16 15 14 15 14 12 11 11 10 10 10 10 11 11 12 12 12 12 13 14 14 15 15 16 17 17 17 18 18 19 19 20 20 20
27 26 25 24 23 22 21 20 19 17 16 15 15 15 14 13 12 12 11 12 12 13 13 13 13 14 14 14 15 15 15 16 17 18 18 19 19 20 20 21 21 22 22
29 28 27 26 25 24 23 22 21 20 18 17 16 16 15 15 14 14 14 14 14 14 14 14 15 15 15 16 16 16 17 18 19 19 20 20 21 22 22 23 23 23 23
30 29 28 27 27 26 25 24 23 22 21 20 19 18 17 17 16 16 16 16 16 16 16 16 16 17 18 17 18 18 19 20 20 21 22 22 23 23 24 24 24 25 25
32 31 30 29 28 27 26 25 25 25 23 22 21 20 20 19 19 19 19 19 18 18 18 18 18 19 20 20 20 21 21 22 23 23 24 24 25 25 26 26 26 26 27
34 33 32 30 30 29 28 27 27 27 25 24 24 23 23 22 21 21 21 21 21 21 21 20 21 22 22 22 23 23 24 24 25 25 26 27 27 27 28 28 27 28 28
36 35 33 32 32 31 30 30 29 28 27 27 26 25 25 24 24 24 24 23 23 23 23 23 23 24 24 25 25 25 26 27 28 28 29 29 29 29 30 30 30 30 30
38 37 36 34 33 33 32 32 31 30 30 29 29 29 28 27 27 27 26 26 25 25 25 26 26 26 26 27 28 28 29 30 30 31 31 31 31 31 31 31 31 32 32
39 38 38 36 35 34 34 34 33 33 33 32 31 31 30 29 29 29 29 28 28 27 27 28 28 28 29 30 30 31 31 32 32 32 32 33 33 33 33 33 33 33 34
40 39 39 38 37 36 35 34 35 35 35 34 33 33 33 32 31 31 31 30 30 30 30 30 31 31 32 32 33 33 34 34 33 33 34 34 34 34 34 34 34 35 35
42 41 41 40 38 37 36 35 35 35 36 36 35 35 34 34 33 33 32 32 32 32 33 33 33 34 34 35 35 36 36 36 36 36 35 35 35 35 35 35 36 36 36
42 41 41 41 40 39 37 36 35 36 37 37 37 37 36 35 34 34 33 34 34 34 35 35 36 36 36 37 38 38 38 38 38 38 37 37 37 37 37 38 38 38 38
43 43 42 41 40 40 39 38 36 37 38 38 38 38 38 38 37 37 36 36 36 37 37 37 38 38 38 39 39 40 39 39 39 39 38 38 38 39 39 40 40 40 39
45 45 44 44 43 41 41 40 39 38 38 38 39 40 40 39 39 40 39 38 38 38 39 40 40 40 41 41 41 40 39 39 39 38 38 38 39 40 41 41 42 41 41
45 45 46 45 44 43 42 42 42 40 40 40 41 41 41 41 41 41 42 41 40 40 40 41 41 42 42 42 41 41 40 39 39 39 39 39 40 40 41 41 41 41 41
45 44 45 45 44 43 43 45 44 43 42 42 43 42 42 43 43 42 43 43 43 42 42 43 42 42 42 42 43 43 41 41 40 40 40 40 41 41 41 41 41 41 41
46 46 46 45 45 44 44 45 46 46 45 44 43 43 44 44 43 43 44 44 45 45 44 44 43 43 43 43 43 43 43 43 42 41 40 40 40 40 40 41 41 42 41
46 46 47 47 46 46 46 46 46 46 47 46 44 45 45 44 44 44 45 45 46 46 46 45 44 45 45 44 45 44 44 44 43 42 41 40 40 41 41 41 42 42 42
46 46 46 47 47 48 47 47 47 46 46 46 45 45 45 45 46 46 47 46 46 46 46 47 46 45 45 45 45 45 44 44 43 43 42 42 41 41 42 43 43 43 43

GEFSSE_500_meanwind_288.txt.gz
Wind_Speed
10 10 10 10 9 9 9 9 9 8 8 7 7 6 6 5 5 4 4 3 3 3 2 2 1 1 2 3 3 4 5 5 6 7 8 8 8 8 8 8 8 9 9
12 12 12 11 11 11 10 10 10 9 9 8 8 8 7 7 6 5 5 4 4 4 3 3 2 2 3 3 4 4 5 6 7 8 8 8 8 8 9 9 9 10 10
14 14 14 13 13 13 12 11 11 11 10 10 10 10 9 8 7 7 6 5 5 5 4 4 3 3 3 4 5 5 6 7 7 8 8 9 9 9 10 10 10 11 11
17 16 16 15 15 15 14 13 13 12 12 12 11 11 11 10 9 8 7 6 6 6 5 5 5 4 5 5 6 6 7 8 8 9 9 10 10 10 11 12 12 12 12
19 18 18 17 17 17 16 15 15 14 14 14 13 13 12 11 10 9 8 7 7 7 6 6 6 6 6 7 7 7 8 8 9 10 10 11 11 12 13 13 13 13 14
22 21 20 20 19 18 18 17 16 17 16 16 15 14 13 12 11 10 10 9 8 8 8 8 8 8 8 8 8 9 9 10 10 11 11 12 12 13 14 14 14 15 15
24 23 23 22 21 20 19 18 18 18 18 18 17 16 15 14 13 11 11 10 10 9 10 9 9 9 10 10 10 10 11 11 11 12 13 13 14 14 15 15 16 16 16
26 25 25 25 23 22 22 21 20 20 20 19 19 18 17 15 14 13 12 11 11 11 11 11 11 11 11 12 12 12 12 13 13 14 15 15 16 16 17 17 18 18 18
29 28 27 26 26 24 23 23 22 21 21 21 20 19 18 17 16 15 14 13 13 12 12 13 13 13 13 13 14 14 14 14 15 16 17 17 18 19 19 19 20 20 20
31 30 29 28 27 26 26 25 24 23 23 23 22 21 20 19 18 17 16 15 14 14 14 14 15 15 15 15 15 15 16 16 17 18 18 19 20 21 21 21 22 22 22
33 32 31 30 29 28 27 27 26 25 25 25 24 23 22 21 20 19 18 17 16 16 16 16 17 17 17 17 17 17 17 18 19 20 21 22 22 23 23 24 24 24 24
35 34 33 32 31 30 29 29 28 27 26 26 25 25 24 23 22 22 21 20 19 18 18 18 18 19 19 19 19 20 20 21 22 22 23 24 24 24 25 25 26 26 26
37 36 34 34 32 32 31 30 30 28 27 27 27 26 26 26 25 24 23 23 22 21 21 21 20 20 20 21 22 22 23 24 24 24 25 25 25 26 26 26 27 27 27
38 37 36 35 34 33 32 32 31 30 29 29 29 28 28 28 27 27 26 25 25 24 24 23 22 23 22 23 24 24 25 25 26 26 27 27 28 28 28 28 28 28 29
38 37 37 36 35 35 34 33 32 31 31 30 30 30 30 30 29 29 28 28 27 26 26 26 25 25 25 26 26 26 27 27 28 28 28 28 29 29 30 30 30 31 31
39 38 37 36 35 35 35 34 33 32 32 31 31 31 31 31 31 30 30 29 29 28 28 28 28 27 28 28 28 29 29 30 30 30 30 30 30 30 31 31 31 32 33
40 39 38 37 36 36 35 35 34 33 33 32 32 32 32 32 32 32 31 31 30 30 30 30 30 30 30 30 30 31 31 31 32 32 32 32 32 33 33 33 34 34 35
41 40 39 39 38 38 37 36 35 34 34 33 33 33 32 33 33 33 33 32 32 32 32 32 32 32 32 32 32 32 33 33 34 35 35 35 35 36 36 36 36 37 37
42 41 41 41 40 40 39 38 36 36 35 35 35 34 33 33 34 34 34 34 34 34 33 34 34 34 34 34 34 34 35 35 36 36 37 37 37 37 38 38 39 39 39
41 41 42 41 41 41 41 39 38 37 36 36 36 35 34 34 34 35 35 35 36 35 35 35 35 35 36 36 36 36 37 37 37 38 38 38 38 38 39 40 40 40 40
42 41 41 41 41 42 41 40 39 39 37 36 37 36 35 35 35 36 37 37 37 37 37 37 37 37 38 38 39 38 38 38 38 38 38 38 39 40 40 41 41 40 40
41 41 42 42 41 42 42 41 41 40 38 38 38 38 37 36 36 37 38 38 38 38 38 38 38 39 40 41 41 41 40 39 39 39 40 40 41 41 41 41 41 41 41
42 42 42 43 44 43 43 43 43 42 41 40 40 38 38 38 37 38 40 40 40 41 41 41 40 41 42 43 43 42 43 43 42 41 42 42 43 42 42 42 42 42 43
42 42 42 44 44 44 45 45 44 44 42 41 40 40 40 40 40 40 41 43 43 43 43 43 42 42 44 44 44 44 45 45 45 44 43 43 42 43 42 42 43 44 44
42 43 42 44 45 45 46 46 45 45 44 43 42 41 42 43 43 43 43 43 44 44 44 44 44 44 45 45 45 45 45 45 45 44 43 42 41 42 42 43 43 44 45
41 42 43 43 44 45 45 46 46 46 45 45 45 44 42 43 43 43 44 45 45 45 45 46 46 45 45 45 45 46 45 44 44 44 43 42 42 42 43 44 44 45 45

GEFSSE_500_meanwind_294.txt.gz
Wind_Speed
11 11 11 11 11 10 10 10 10 9 9 9 9 8 8 7 6 5 5 4 4 4 3 3 2 2 2 2 3 3 4 5 5 6 7 7 7 8 8 8 9 9 9
14 14 14 13 13 12 12 11 11 10 10 10 10 9 8 8 7 7 6 6 5 5 5 4 4 3 3 4 4 4 5 5 6 6 7 8 8 8 8 9 9 10 10
16 16 16 16 15 15 14 14 13 12 11 11 11 10 10 9 8 7 7 7 6 6 6 6 5 5 4 5 5 5 5 6 6 7 8 8 9 9 9 10 10 10 11
19 18 18 17 17 17 16 16 15 14 13 13 12 12 11 10 10 9 9 8 8 7 7 7 7 6 6 6 6 6 6 6 7 8 8 9 10 10 10 11 11 12 12
21 21 20 20 19 19 18 17 17 16 16 15 14 14 13 12 12 11 10 9 9 9 9 8 8 8 8 8 8 8 8 8 8 9 9 10 11 12 12 12 13 13 14
23 23 22 22 21 21 20 19 19 18 18 17 17 16 15 14 13 12 12 11 10 10 10 10 10 10 10 10 10 9 9 10 10 10 10 12 13 13 13 14 14 14 15
26 25 25 24 24 23 22 22 21 21 20 19 18 18 17 16 15 14 13 13 12 12 12 11 11 12 11 11 11 11 11 11 11 11 12 13 14 15 15 16 16 16 16
28 28 28 27 26 25 25 24 24 23 22 21 20 20 19 18 17 16 15 15 14 13 13 13 13 13 13 13 13 13 13 13 13 13 14 15 16 16 17 17 17 18 19
31 30 30 30 29 28 27 27 26 26 25 23 22 22 21 20 19 18 17 17 16 15 15 15 15 15 15 15 16 16 15 15 15 15 16 17 18 18 19 19 20 20 21
33 32 32 32 31 30 30 30 29 28 27 25 25 24 23 22 21 20 19 18 18 18 17 17 17 17 17 17 17 18 17 17 17 18 18 19 19 20 21 21 21 22 22
34 34 34 33 33 32 32 31 31 30 29 27 27 26 25 24 23 23 22 21 20 20 20 19 19 19 19 19 19 19 19 19 19 20 20 21 21 22 23 23 23 23 24
35 35 36 35 34 33 33 32 31 30 29 29 28 28 28 27 26 25 24 24 23 22 22 22 21 22 21 21 21 21 21 21 21 21 22 22 23 23 24 24 24 25 25
37 36 36 36 35 34 33 32 32 31 30 30 30 29 29 28 28 27 26 25 25 25 24 24 23 23 23 23 23 22 23 23 23 23 23 23 24 24 25 25 26 26 27
37 37 36 36 35 34 33 33 33 32 32 31 31 30 30 30 30 29 28 27 27 26 26 26 25 24 24 25 24 24 25 25 25 25 25 25 26 26 27 27 28 28 29
39 38 37 37 37 36 35 34 34 34 33 32 31 31 32 32 31 30 30 29 28 28 28 27 27 27 26 26 26 26 26 27 27 27 27 27 28 29 29 29 30 31 32
40 39 38 38 38 37 35 35 34 34 34 33 33 33 33 32 32 32 31 31 30 29 29 29 29 29 29 28 27 28 28 28 29 29 29 29 29 30 31 31 32 33 34
40 40 40 40 39 38 36 35 35 35 35 34 34 34 34 33 33 33 32 32 32 31 31 31 31 30 31 31 30 29 29 29 30 30 31 31 32 33 33 34 34 35 36
42 41 41 41 40 39 38 37 37 36 35 35 35 35 34 34 34 34 33 33 33 33 33 33 32 32 32 32 32 31 30 31 32 32 33 34 34 34 35 36 36 37 38
43 42 42 42 41 40 39 38 38 37 37 36 36 35 35 35 35 35 34 34 35 34 34 35 34 33 34 34 34 33 33 34 34 34 35 36 36 37 37 38 38 39 39
44 43 43 43 42 42 40 40 39 38 38 37 37 36 35 35 35 36 36 36 36 36 36 36 35 35 35 35 35 35 36 37 37 37 37 37 37 38 39 39 39 39 39
44 43 43 43 43 42 42 41 40 39 38 38 37 37 36 36 36 37 37 36 36 37 37 37 37 36 36 37 37 37 37 37 38 39 38 38 39 39 40 40 40 40 41
43 43 43 43 43 42 42 42 42 40 40 39 38 37 37 38 37 37 37 36 37 37 38 38 39 39 39 38 38 38 39 39 39 39 39 40 40 40 40 40 41 41 42
42 42 43 42 42 42 43 43 42 41 41 40 39 39 38 39 39 38 38 38 38 38 39 40 40 40 40 40 40 40 41 41 41 40 40 41 41 41 42 42 42 42 43
40 41 42 42 43 42 41 41 43 42 41 41 41 40 40 40 39 40 40 40 40 40 40 41 41 41 41 41 41 42 42 43 43 43 43 43 43 43 43 43 43 43 43
38 39 40 41 42 42 41 41 42 42 42 42 42 41 40 40 41 41 42 42 41 40 41 42 42 42 42 43 43 42 43 44 44 45 44 44 44 44 43 43 43 43 44
37 38 40 40 42 42 42 42 41 42 42 42 42 43 43 41 41 41 42 42 41 41 42 43 43 44 44 43 44 43 44 44 45 46 46 46 45 44 43 43 44 44 45

GEFSSE_500_meanwind_300.txt.gz
Wind_Speed
12 12 12 11 11 11 10 10 10 10 9 9 9 9 8 8 7 7 6 6 5 5 4 4 4 4 3 2 3 3 3 3 4 4 5 5 6 6 7 7 8 8 8
14 14 13 13 13 12 12 12 12 11 11 11 10 10 9 9 9 8 7 7 7 6 6 6 5 5 5 4 4 4 4 4 5 5 6 6 7 7 8 9 9 9 9
16 16 16 15 14 14 14 14 14 13 13 13 12 12 11 10 10 9 8 8 8 8 7 7 7 6 6 6 5 5 5 6 6 6 7 7 8 9 9 10 10 10 11
19 18 18 18 17 16 16 16 16 15 15 15 14 14 13 12 11 11 10 10 10 10 9 9 8 8 8 8 8 7 7 8 8 8 8 9 9 10 10 11 11 12 12
21 20 20 20 20 19 18 18 18 17 17 17 16 16 15 14 13 13 12 12 11 11 10 10 10 10 10 9 9 9 10 10 10 10 10 10 11 11 11 12 12 13 13
23 23 22 22 22 21 21 20 20 19 19 19 18 18 17 16 15 15 14 14 13 13 12 12 12 11 11 11 11 12 12 12 12 12 12 12 12 12 13 13 14 15 15
25 25 25 24 23 23 23 22 22 21 21 21 20 20 19 18 17 16 16 15 15 14 14 13 13 13 13 13 13 13 14 13 14 14 14 13 14 14 14 15 16 17 17
27 26 26 26 26 25 25 24 24 24 23 23 22 22 21 20 19 19 18 17 17 16 16 15 15 15 15 15 15 16 16 16 16 16 16 15 15 15 16 17 18 18 19
29 28 28 28 28 28 28 27 26 26 26 25 25 24 23 22 21 21 20 20 19 19 18 18 17 17 17 17 17 18 17 17 18 18 17 17 17 17 18 18 19 20 20
30 30 30 30 30 30 30 29 29 28 28 28 27 26 25 24 24 23 23 22 21 21 21 20 19 19 19 19 19 19 19 19 19 19 19 19 19 19 20 20 20 21 22
32 31 31 32 32 32 32 31 30 30 30 29 29 29 28 27 26 25 25 25 24 23 23 22 21 21 20 20 20 21 21 20 20 21 21 21 21 21 21 21 22 22 23
34 33 33 33 33 33 33 33 32 31 32 31 31 30 30 29 28 27 27 27 26 26 26 25 24 24 23 22 22 22 22 22 22 22 22 22 23 23 23 23 23 24 25
35 35 34 34 34 34 34 34 33 33 32 32 31 31 31 30 29 28 27 27 27 27 27 27 26 26 25 24 24 24 24 23 23 23 24 24 25 25 25 25 25 26 26
36 35 35 34 34 34 34 34 34 34 32 32 31 31 31 30 30 29 29 29 28 28 28 28 28 28 27 26 26 25 25 25 25 25 26 26 27 27 27 27 27 27 28
38 37 37 36 35 35 35 35 35 34 33 33 32 32 32 32 31 31 30 30 30 30 30 30 30 29 29 28 28 27 27 27 27 27 27 28 29 28 28 29 28 29 29
40 40 39 38 37 36 35 35 35 34 33 34 33 33 33 33 33 32 31 31 31 31 31 31 31 31 31 30 30 29 29 28 28 28 28 29 29 29 29 30 30 31 31
42 42 40 40 39 38 36 36 36 35 35 35 34 34 33 33 33 33 33 33 33 33 33 32 32 32 32 32 32 31 31 30 29 29 29 30 30 31 30 31 31 32 33
43 43 42 41 40 40 39 37 37 37 36 36 36 36 35 35 34 35 34 34 34 34 34 34 34 33 33 33 33 33 33 32 32 31 31 31 32 32 32 32 33 34 35
44 44 43 43 42 42 41 40 39 39 38 37 37 37 37 37 36 36 36 35 35 35 35 35 35 35 34 34 34 35 34 34 33 33 33 33 33 33 34 34 35 36 37
43 44 44 44 43 43 43 43 41 40 40 39 38 38 38 38 37 37 37 37 36 36 35 36 36 36 36 36 36 36 36 35 35 34 34 35 35 36 36 36 37 38 39
42 43 44 44 45 45 44 44 43 42 42 41 40 40 38 38 38 38 37 37 38 37 37 37 37 38 38 38 37 37 37 37 37 36 36 36 37 38 38 39 40 40 41
42 43 43 43 45 45 45 45 44 43 43 42 41 40 40 39 39 38 38 38 38 39 39 38 38 38 39 39 39 39 39 39 39 39 39 39 39 40 40 41 41 42 42
42 43 42 43 44 45 45 45 44 43 43 43 43 41 40 40 40 39 39 40 40 39 39 39 39 38 39 40 40 40 40 40 41 40 41 41 41 41 42 42 42 42 42
42 42 42 42 43 44 45 45 44 44 43 43 43 42 41 40 41 40 41 40 41 40 40 40 40 40 40 41 41 41 42 42 42 42 42 42 42 43 44 43 43 42 43
41 42 42 42 42 43 44 44 44 44 43 43 43 42 41 40 41 41 41 41 41 41 41 41 41 41 42 42 42 43 43 44 44 44 43 44 44 44 45 44 44 44 45
40 42 43 42 42 42 42 43 43 44 44 44 43 42 41 41 41 42 42 41 41 41 40 40 40 41 42 42 43 44 45 45 45 45 45 44 45 45 45 44 44 45 45